Weather History for Chino, CA

Change the Weather History Date:

Thursday, November 29, 2012

  Actual Average Record
Temperature  
Mean Temperature 60 °F -  
Max Temperature 64 °F 66 °F 84 °F (1999)
Min Temperature 55 °F 38 °F 30 °F (2010)
Degree Days  
Heating Degree Days 6    
Growing Degree Days 10 (Base 50)    
Moisture  
Dew Point 56 °F    
Average Humidity 89    
Maximum Humidity 97    
Minimum Humidity 80    
Precipitation  
Precipitation 0.07 in - - ()
Sea Level Pressure  
Sea Level Pressure 30.20 in    
Wind  
Wind Speed 2 mph (WNW)    
Max Wind Speed 9 mph    
Max Gust Speed -    
Visibility 4 miles    
Events Rain    
Averages and records for this station are not official NWS values.
T = Trace of Precipitation, MM = Missing Value Source: NWS Daily Summary

Daily Weather History Graph

Daily Weather History Graph

Search for Another Location

Airport:

Trip Planner

Search our weather history database for the weather conditions in past years. The results will help you decide how hot, cold, wet, or windy it might be!

Date:

Astronomy

Nov. 29, 2012 Rise Set
Actual Time 6:36 AM PST 4:41 PM PST
Civil Twilight 6:09 AM PST 5:08 PM PST
Nautical Twilight 5:38 AM PST 5:39 PM PST
Astronomical Twilight 5:08 AM PST 6:09 PM PST
Moon 5:48 PM PST (11/29) 7:26 AM PST (11/29)
Length of Visible Light 10h 59m
Length of Day
10h 05m
Full, 99% of the Moon is Illuminated
Nov 29
Full
Dec 6
Last Quarter
Dec 13
New
Dec 19
First Quarter
Dec 28
Full

Hourly Weather History & Observations

Time (PST) Temp. Dew Point Humidity Pressure Visibility Wind Dir Wind Speed Gust Speed Precip Events Conditions
12:23 AM 57.2 °F 53.6 °F 88% 30.22 in 4.0 mi NW 3.5 mph - N/A   Haze
12:53 AM 57.0 °F 53.1 °F 87% 30.21 in 4.0 mi West 3.5 mph - N/A   Overcast
1:53 AM 57.0 °F 53.1 °F 87% 30.20 in 4.0 mi Calm Calm - N/A   Overcast
2:47 AM 57.2 °F 53.6 °F 88% 30.21 in 2.5 mi NW 3.5 mph - 0.00 in Rain Light Rain
2:53 AM 57.0 °F 54.0 °F 89% 30.20 in 2.5 mi Calm Calm - 0.00 in Rain Light Rain
3:09 AM 57.2 °F 53.6 °F 88% 30.20 in 1.5 mi Calm Calm - 0.00 in Rain Light Rain
3:21 AM 57.2 °F 53.6 °F 88% 30.20 in 2.0 mi Calm Calm - 0.00 in Rain Light Rain
3:39 AM 57.2 °F 53.6 °F 88% 30.20 in 1.8 mi Calm Calm - 0.00 in Rain Light Rain
3:43 AM 57.2 °F 53.6 °F 88% 30.20 in 2.0 mi Calm Calm - 0.00 in Rain Light Rain
3:51 AM 57.2 °F 55.4 °F 94% 30.20 in 1.8 mi Calm Calm - 0.00 in   Overcast
3:52 AM 57.0 °F 55.0 °F 93% 30.19 in 1.8 mi Calm Calm - 0.00 in   Overcast
4:28 AM 57.2 °F 53.6 °F 88% 30.20 in 2.0 mi Calm Calm - 0.00 in   Overcast
4:36 AM 57.2 °F 53.6 °F 88% 30.19 in 1.5 mi Variable 3.5 mph - 0.01 in Rain Light Rain
4:47 AM 55.4 °F 53.6 °F 94% 30.19 in 2.5 mi East 6.9 mph - 0.01 in Rain Light Rain
4:48 AM 55.9 °F 53.1 °F 90% 30.19 in 2.5 mi East 6.9 mph - 0.01 in   Overcast
5:19 AM 55.4 °F 53.6 °F 94% 30.21 in 1.2 mi East 3.5 mph - 0.02 in Rain Rain
5:53 AM 55.9 °F 54.0 °F 93% 30.21 in 1.2 mi Calm Calm - 0.06 in Rain Rain
6:53 AM 55.9 °F 55.0 °F 97% 30.22 in 1.2 mi Calm Calm - 0.00 in   Overcast
7:53 AM 57.0 °F 55.0 °F 93% 30.23 in 2.0 mi Calm Calm - 0.00 in   Overcast
8:51 AM 57.2 °F 55.4 °F 94% 30.24 in 2.0 mi Calm Calm - 0.00 in   Overcast
8:53 AM 57.9 °F 55.0 °F 90% 30.24 in 2.0 mi Calm Calm - 0.00 in   Overcast
9:53 AM 59.0 °F 55.9 °F 90% 30.25 in 2.0 mi Calm Calm - N/A   Overcast
10:00 AM 59.0 °F 55.4 °F 88% 30.25 in 2.0 mi Calm Calm - N/A   Overcast
10:35 AM 60.8 °F 55.4 °F 82% 30.24 in 2.0 mi Calm Calm - N/A   Overcast
10:53 AM 62.1 °F 57.0 °F 84% 30.23 in 4.0 mi Calm Calm - N/A   Haze
11:24 AM 60.8 °F 55.4 °F 82% 30.23 in 2.0 mi Calm Calm - N/A   Haze
11:53 AM 63.0 °F 57.9 °F 84% 30.19 in 4.0 mi NNE 4.6 mph - 0.00 in   Haze
12:53 PM 63.0 °F 57.9 °F 84% 30.17 in 4.0 mi Calm Calm - N/A   Haze
1:53 PM 64.0 °F 57.9 °F 80% 30.16 in 5.0 mi West 6.9 mph - N/A   Haze
2:53 PM 63.0 °F 59.0 °F 87% 30.15 in 5.0 mi West 8.1 mph - N/A   Overcast
3:53 PM 62.1 °F 60.1 °F 93% 30.15 in 6.0 mi West 9.2 mph - N/A   Overcast
4:53 PM 60.1 °F 57.9 °F 93% 30.15 in 6.0 mi West 4.6 mph - N/A   Mostly Cloudy
5:53 PM 60.1 °F 57.0 °F 90% 30.16 in 10.0 mi West 5.8 mph - N/A   Mostly Cloudy
6:00 PM 60.8 °F 57.2 °F 88% 30.16 in 10.0 mi West 6.9 mph - N/A   Mostly Cloudy
6:53 PM 61.0 °F 57.9 °F 90% 30.17 in 10.0 mi NW 3.5 mph - N/A   Mostly Cloudy
7:53 PM 62.1 °F 57.0 °F 84% 30.17 in 10.0 mi SSW 9.2 mph - N/A   Mostly Cloudy
8:53 PM 61.0 °F 57.0 °F 87% 30.18 in 8.0 mi North 3.5 mph - N/A   Mostly Cloudy
9:00 PM 60.8 °F 57.2 °F 88% 30.18 in 8.0 mi Calm Calm - N/A   Mostly Cloudy
9:50 PM 60.8 °F 57.2 °F 88% 30.18 in 6.0 mi Calm Calm - N/A   Overcast
9:53 PM 60.1 °F 57.9 °F 93% 30.18 in 6.0 mi Calm Calm - N/A   Overcast
10:53 PM 60.1 °F 57.9 °F 93% 30.18 in 5.0 mi Calm Calm - N/A   Overcast
11:53 PM 61.0 °F 57.9 °F 90% 30.17 in 5.0 mi Calm Calm - N/A   Overcast